LVMSA SADF-SUMU

Flight info

Callsign LVMSA
Flight time 1h 7m
Altitude 3000
Route DCT DORVO A305
Aircraft BE36/L-S/C

Departure

Time 2026-04-27 02:34
Airport San Fernando Airport (SADF)

Arrival

Time 2026-04-27 03:42
Airport Carrasco General Cesáreo L. Berisso International Airport (SUMU)
Time Latitude Longitude Altitude Speed Heading
2026-04-27 02:07 -34.44924 -58.58173 8 ft 0 kts 150°
2026-04-27 02:27 -34.44939 -58.58174 8 ft 2 kts 214°
2026-04-27 02:27 -34.44949 -58.58189 8 ft 2 kts 240°
2026-04-27 02:27 -34.44952 -58.58195 8 ft 0 kts 243°
2026-04-27 02:28 -34.44953 -58.58198 8 ft 1 kts 243°
2026-04-27 02:28 -34.44962 -58.58227 8 ft 5 kts 290°
2026-04-27 02:28 -34.44921 -58.58261 8 ft 8 kts 330°
2026-04-27 02:29 -34.44899 -58.58277 8 ft 0 kts 328°
2026-04-27 02:30 -34.44891 -58.58284 8 ft 6 kts 326°
2026-04-27 02:30 -34.44849 -58.58360 8 ft 13 kts 267°
2026-04-27 02:30 -34.44874 -58.58408 8 ft 0 kts 221°
2026-04-27 02:33 -34.44876 -58.58409 8 ft 4 kts 222°
2026-04-27 02:33 -34.45059 -58.58624 8 ft 62 kts 219°
2026-04-27 02:33 -34.45414 -58.59022 115 ft 71 kts 226°
2026-04-27 02:33 -34.45791 -58.59430 329 ft 73 kts 221°
2026-04-27 02:34 -34.46234 -58.59815 439 ft 80 kts 224°
2026-04-27 02:34 -34.46669 -58.60204 662 ft 75 kts 220°
2026-04-27 02:34 -34.47110 -58.60584 787 ft 78 kts 222°
2026-04-27 02:34 -34.47555 -58.60969 957 ft 78 kts 219°
2026-04-27 02:35 -34.47980 -58.61383 1129 ft 79 kts 222°
2026-04-27 02:35 -34.48396 -58.61782 1310 ft 77 kts 223°
2026-04-27 02:35 -34.48857 -58.62177 1421 ft 84 kts 215°
2026-04-27 02:35 -34.49464 -58.62138 1607 ft 104 kts 165°
2026-04-27 02:36 -34.49894 -58.61339 1794 ft 127 kts 120°
2026-04-27 02:36 -34.50269 -58.60469 1979 ft 112 kts 141°
2026-04-27 02:36 -34.50613 -58.59587 2126 ft 121 kts 124°
2026-04-27 02:36 -34.50840 -58.58579 2278 ft 125 kts 118°
2026-04-27 02:37 -34.51039 -58.57517 2368 ft 132 kts 117°
2026-04-27 02:37 -34.51254 -58.56461 2546 ft 128 kts 120°
2026-04-27 02:37 -34.51477 -58.55420 2715 ft 127 kts 120°
2026-04-27 02:37 -34.51693 -58.54364 2847 ft 131 kts 119°
2026-04-27 02:38 -34.51918 -58.53281 2898 ft 141 kts 120°
2026-04-27 02:38 -34.52190 -58.52080 2899 ft 152 kts 119°
2026-04-27 02:38 -34.52494 -58.50816 2892 ft 159 kts 120°
2026-04-27 02:38 -34.52817 -58.49512 2891 ft 165 kts 120°
2026-04-27 02:39 -34.53159 -58.48157 2881 ft 166 kts 120°
2026-04-27 02:39 -34.53483 -58.46846 2872 ft 162 kts 119°
2026-04-27 02:39 -34.53798 -58.45549 2882 ft 158 kts 119°
2026-04-27 02:39 -34.54103 -58.44275 2877 ft 156 kts 120°
2026-04-27 02:40 -34.54398 -58.43014 2873 ft 154 kts 120°
2026-04-27 02:40 -34.54682 -58.41780 2880 ft 152 kts 120°
2026-04-27 02:40 -34.54963 -58.40529 2883 ft 152 kts 119°
2026-04-27 02:40 -34.55242 -58.39312 2890 ft 151 kts 119°
2026-04-27 02:41 -34.55527 -58.38087 2935 ft 148 kts 120°
2026-04-27 02:41 -34.55797 -58.36882 2943 ft 148 kts 120°
2026-04-27 02:41 -34.56064 -58.35688 2944 ft 149 kts 120°
2026-04-27 02:41 -34.56337 -58.34465 2937 ft 149 kts 119°
2026-04-27 02:42 -34.56607 -58.33256 2929 ft 150 kts 119°
2026-04-27 02:42 -34.56880 -58.32029 2934 ft 149 kts 119°
2026-04-27 02:42 -34.57153 -58.30805 2930 ft 149 kts 119°
2026-04-27 02:42 -34.57426 -58.29601 2933 ft 149 kts 119°
2026-04-27 02:43 -34.57697 -58.28380 2930 ft 149 kts 118°
2026-04-27 02:43 -34.57973 -58.27161 2935 ft 148 kts 119°
2026-04-27 02:43 -34.58243 -58.25962 2928 ft 149 kts 119°
2026-04-27 02:43 -34.58518 -58.24733 2929 ft 149 kts 119°
2026-04-27 02:44 -34.58796 -58.23521 2926 ft 150 kts 120°
2026-04-27 02:44 -34.59074 -58.22303 2929 ft 150 kts 119°
2026-04-27 02:44 -34.59362 -58.21076 2922 ft 150 kts 119°
2026-04-27 02:44 -34.59644 -58.19863 2923 ft 151 kts 119°
2026-04-27 02:45 -34.59925 -58.18634 2916 ft 151 kts 119°
2026-04-27 02:45 -34.60207 -58.17394 2918 ft 152 kts 119°
2026-04-27 02:45 -34.60489 -58.16151 2922 ft 151 kts 119°
2026-04-27 02:45 -34.60774 -58.14932 2922 ft 151 kts 119°
2026-04-27 02:46 -34.61059 -58.13709 2919 ft 151 kts 119°
2026-04-27 02:46 -34.61339 -58.12480 2921 ft 152 kts 118°
2026-04-27 02:46 -34.61623 -58.11247 2916 ft 152 kts 118°
2026-04-27 02:46 -34.61904 -58.09989 2913 ft 152 kts 119°
2026-04-27 02:47 -34.62186 -58.08754 2920 ft 152 kts 119°
2026-04-27 02:47 -34.62469 -58.07534 2926 ft 152 kts 119°
2026-04-27 02:47 -34.62763 -58.06296 2917 ft 153 kts 119°
2026-04-27 02:47 -34.63059 -58.05042 2911 ft 153 kts 119°
2026-04-27 02:48 -34.63352 -58.03796 2901 ft 154 kts 119°
2026-04-27 02:48 -34.63643 -58.02548 2904 ft 154 kts 119°
2026-04-27 02:48 -34.63934 -58.01306 2901 ft 154 kts 119°
2026-04-27 02:48 -34.64226 -58.00058 2906 ft 153 kts 119°
2026-04-27 02:49 -34.64515 -57.98810 2910 ft 154 kts 119°
2026-04-27 02:49 -34.64807 -57.97553 2912 ft 154 kts 118°
2026-04-27 02:49 -34.65100 -57.96307 2912 ft 153 kts 119°
2026-04-27 02:49 -34.65397 -57.95061 2914 ft 153 kts 119°
2026-04-27 02:50 -34.65690 -57.93822 2910 ft 154 kts 119°
2026-04-27 02:50 -34.65998 -57.92548 2905 ft 158 kts 119°
2026-04-27 02:50 -34.66307 -57.91272 2897 ft 160 kts 119°
2026-04-27 02:50 -34.66627 -57.89970 2894 ft 160 kts 118°
2026-04-27 02:51 -34.66858 -57.88626 2895 ft 162 kts 112°
2026-04-27 02:51 -34.67084 -57.87299 2896 ft 163 kts 113°
2026-04-27 02:51 -34.67314 -57.85939 2888 ft 164 kts 112°
2026-04-27 02:51 -34.67543 -57.84587 2888 ft 163 kts 113°
2026-04-27 02:52 -34.67771 -57.83234 2882 ft 162 kts 113°
2026-04-27 02:52 -34.67992 -57.81899 2894 ft 162 kts 112°
2026-04-27 02:52 -34.68216 -57.80563 2894 ft 161 kts 112°
2026-04-27 02:52 -34.68436 -57.79234 2898 ft 161 kts 113°
2026-04-27 02:53 -34.68657 -57.77902 2900 ft 161 kts 113°
2026-04-27 02:53 -34.68882 -57.76562 2897 ft 161 kts 114°
2026-04-27 02:53 -34.69103 -57.75235 2899 ft 160 kts 113°
2026-04-27 02:53 -34.69324 -57.73922 2898 ft 160 kts 113°
2026-04-27 02:54 -34.69553 -57.72582 2896 ft 160 kts 112°
2026-04-27 02:54 -34.69776 -57.71256 2897 ft 160 kts 113°
2026-04-27 02:54 -34.69995 -57.69933 2902 ft 161 kts 112°
2026-04-27 02:54 -34.70216 -57.68590 2894 ft 161 kts 113°
2026-04-27 02:55 -34.70436 -57.67248 2896 ft 161 kts 113°
2026-04-27 02:55 -34.70660 -57.65908 2895 ft 161 kts 112°
2026-04-27 02:55 -34.70880 -57.64578 2889 ft 162 kts 112°
2026-04-27 02:55 -34.71104 -57.63227 2878 ft 163 kts 113°
2026-04-27 02:56 -34.71249 -57.61845 2884 ft 166 kts 106°
2026-04-27 02:56 -34.71370 -57.60456 2885 ft 165 kts 106°
2026-04-27 02:56 -34.71492 -57.59061 2888 ft 166 kts 105°
2026-04-27 02:56 -34.71563 -57.57663 2892 ft 167 kts 103°
2026-04-27 02:57 -34.71639 -57.56260 2891 ft 167 kts 103°
2026-04-27 02:57 -34.71716 -57.54852 2889 ft 168 kts 103°
2026-04-27 02:57 -34.71794 -57.53418 2884 ft 168 kts 103°
2026-04-27 02:57 -34.71870 -57.51999 2886 ft 168 kts 103°
2026-04-27 02:58 -34.71941 -57.50576 2877 ft 169 kts 103°
2026-04-27 02:58 -34.72013 -57.49155 2875 ft 168 kts 103°
2026-04-27 02:58 -34.72090 -57.47742 2883 ft 167 kts 104°
2026-04-27 02:58 -34.72166 -57.46320 2882 ft 168 kts 103°
2026-04-27 02:59 -34.72245 -57.44907 2885 ft 168 kts 103°
2026-04-27 02:59 -34.72321 -57.43499 2881 ft 168 kts 104°
2026-04-27 02:59 -34.72395 -57.42076 2875 ft 169 kts 103°
2026-04-27 02:59 -34.72474 -57.40642 2874 ft 169 kts 102°
2026-04-27 03:00 -34.72555 -57.39226 2874 ft 169 kts 103°
2026-04-27 03:00 -34.72635 -57.37802 2868 ft 169 kts 103°
2026-04-27 03:00 -34.72717 -57.36373 2876 ft 168 kts 103°
2026-04-27 03:00 -34.72800 -57.34951 2886 ft 168 kts 102°
2026-04-27 03:01 -34.72883 -57.33537 2876 ft 168 kts 103°
2026-04-27 03:01 -34.72968 -57.32130 2881 ft 168 kts 102°
2026-04-27 03:01 -34.73054 -57.30714 2877 ft 167 kts 103°
2026-04-27 03:01 -34.73140 -57.29299 2868 ft 167 kts 102°
2026-04-27 03:02 -34.73227 -57.27889 2861 ft 168 kts 102°
2026-04-27 03:02 -34.73313 -57.26454 2856 ft 168 kts 103°
2026-04-27 03:02 -34.73399 -57.25046 2857 ft 168 kts 103°
2026-04-27 03:02 -34.73481 -57.23619 2863 ft 168 kts 102°
2026-04-27 03:03 -34.73562 -57.22214 2868 ft 168 kts 102°
2026-04-27 03:03 -34.73727 -57.19383 2853 ft 168 kts 102°
2026-04-27 03:03 -34.73815 -57.17954 2855 ft 168 kts 103°
2026-04-27 03:04 -34.73902 -57.16551 2851 ft 168 kts 103°
2026-04-27 03:04 -34.73989 -57.15116 2846 ft 169 kts 102°
2026-04-27 03:04 -34.74079 -57.13695 2851 ft 169 kts 102°
2026-04-27 03:04 -34.74161 -57.12278 2858 ft 168 kts 103°
2026-04-27 03:05 -34.74250 -57.10851 2856 ft 168 kts 103°
2026-04-27 03:05 -34.74339 -57.09437 2853 ft 169 kts 103°
2026-04-27 03:05 -34.74431 -57.08011 2841 ft 170 kts 102°
2026-04-27 03:05 -34.74525 -57.06586 2840 ft 170 kts 103°
2026-04-27 03:06 -34.74614 -57.05156 2846 ft 170 kts 102°
2026-04-27 03:06 -34.74699 -57.03716 2848 ft 170 kts 102°
2026-04-27 03:06 -34.74790 -57.02275 2847 ft 170 kts 103°
2026-04-27 03:06 -34.74875 -57.00852 2855 ft 169 kts 102°
2026-04-27 03:07 -34.74966 -56.99422 2855 ft 169 kts 103°
2026-04-27 03:07 -34.75056 -56.98012 2851 ft 170 kts 103°
2026-04-27 03:07 -34.75147 -56.96574 2847 ft 170 kts 102°
2026-04-27 03:07 -34.75264 -56.95149 2845 ft 169 kts 105°
2026-04-27 03:08 -34.75402 -56.93726 2852 ft 169 kts 105°
2026-04-27 03:08 -34.75538 -56.92315 2858 ft 169 kts 105°
2026-04-27 03:08 -34.75670 -56.90894 2854 ft 169 kts 105°
2026-04-27 03:08 -34.75808 -56.89465 2849 ft 169 kts 106°
2026-04-27 03:09 -34.75944 -56.88067 2846 ft 169 kts 106°
2026-04-27 03:09 -34.76087 -56.86632 2843 ft 169 kts 105°
2026-04-27 03:09 -34.76228 -56.85218 2841 ft 169 kts 105°
2026-04-27 03:09 -34.76373 -56.83805 2838 ft 170 kts 105°
2026-04-27 03:10 -34.76523 -56.82385 2845 ft 170 kts 105°
2026-04-27 03:10 -34.76667 -56.80950 2850 ft 169 kts 105°
2026-04-27 03:10 -34.76815 -56.79532 2851 ft 169 kts 105°
2026-04-27 03:10 -34.76961 -56.78110 2848 ft 169 kts 106°
2026-04-27 03:11 -34.77107 -56.76695 2852 ft 169 kts 105°
2026-04-27 03:11 -34.77351 -56.75321 2841 ft 165 kts 116°
2026-04-27 03:11 -34.77672 -56.73982 2834 ft 165 kts 117°
2026-04-27 03:11 -34.77992 -56.72634 2825 ft 166 kts 116°
2026-04-27 03:12 -34.78261 -56.71267 2829 ft 173 kts 99°
2026-04-27 03:12 -34.78060 -56.69826 2833 ft 177 kts 79°
2026-04-27 03:12 -34.77786 -56.68354 2832 ft 177 kts 80°
2026-04-27 03:12 -34.77513 -56.66891 2833 ft 177 kts 79°
2026-04-27 03:13 -34.77240 -56.65437 2831 ft 177 kts 79°
2026-04-27 03:13 -34.76971 -56.63981 2826 ft 177 kts 79°
2026-04-27 03:13 -34.76703 -56.62524 2826 ft 177 kts 79°
2026-04-27 03:13 -34.76426 -56.61055 2821 ft 178 kts 79°
2026-04-27 03:14 -34.76152 -56.59595 2822 ft 178 kts 79°
2026-04-27 03:14 -34.75877 -56.58140 2820 ft 177 kts 79°
2026-04-27 03:14 -34.75600 -56.56669 2821 ft 177 kts 79°
2026-04-27 03:14 -34.75335 -56.55213 2825 ft 177 kts 80°
2026-04-27 03:15 -34.75072 -56.53748 2818 ft 177 kts 79°
2026-04-27 03:15 -34.74811 -56.52294 2818 ft 177 kts 79°
2026-04-27 03:15 -34.74537 -56.50842 2820 ft 177 kts 80°
2026-04-27 03:15 -34.74268 -56.49372 2822 ft 177 kts 79°
2026-04-27 03:16 -34.74005 -56.47915 2829 ft 177 kts 79°
2026-04-27 03:16 -34.73743 -56.46449 2824 ft 177 kts 80°
2026-04-27 03:16 -34.73478 -56.44985 2819 ft 177 kts 79°
2026-04-27 03:16 -34.73215 -56.43541 2829 ft 176 kts 79°
2026-04-27 03:17 -34.72944 -56.42087 2826 ft 176 kts 79°
2026-04-27 03:17 -34.72676 -56.40632 2825 ft 176 kts 82°
2026-04-27 03:17 -34.72586 -56.39168 2821 ft 174 kts 91°
2026-04-27 03:17 -34.72513 -56.37699 2829 ft 174 kts 91°
2026-04-27 03:18 -34.72441 -56.36228 2821 ft 175 kts 91°
2026-04-27 03:18 -34.72370 -56.34759 2817 ft 175 kts 90°
2026-04-27 03:18 -34.72308 -56.33279 2807 ft 175 kts 90°
2026-04-27 03:18 -34.72241 -56.31797 2826 ft 173 kts 90°
2026-04-27 03:19 -34.72173 -56.30370 2882 ft 169 kts 91°
2026-04-27 03:19 -34.72104 -56.28925 2882 ft 170 kts 91°
2026-04-27 03:19 -34.72035 -56.27499 2893 ft 170 kts 91°
2026-04-27 03:19 -34.71970 -56.26057 2891 ft 171 kts 90°
2026-04-27 03:20 -34.71905 -56.24615 2889 ft 172 kts 90°
2026-04-27 03:20 -34.71842 -56.23150 2886 ft 173 kts 90°
2026-04-27 03:20 -34.71777 -56.21707 2887 ft 173 kts 90°
2026-04-27 03:20 -34.71709 -56.20231 2877 ft 173 kts 91°
2026-04-27 03:21 -34.71650 -56.18776 2881 ft 174 kts 90°
2026-04-27 03:21 -34.71590 -56.17312 2878 ft 173 kts 91°
2026-04-27 03:21 -34.71528 -56.15848 2880 ft 173 kts 90°
2026-04-27 03:21 -34.71450 -56.14387 2876 ft 173 kts 89°
2026-04-27 03:22 -34.71371 -56.12915 2886 ft 173 kts 90°
2026-04-27 03:22 -34.71294 -56.11466 2882 ft 173 kts 90°
2026-04-27 03:22 -34.71221 -56.10016 2887 ft 173 kts 89°
2026-04-27 03:22 -34.71140 -56.08543 2884 ft 173 kts 90°
2026-04-27 03:23 -34.71062 -56.07090 2884 ft 173 kts 89°
2026-04-27 03:23 -34.70981 -56.05616 2883 ft 174 kts 90°
2026-04-27 03:23 -34.70849 -56.04157 2881 ft 175 kts 83°
2026-04-27 03:23 -34.70653 -56.02707 2877 ft 174 kts 83°
2026-04-27 03:24 -34.70453 -56.01266 2881 ft 174 kts 82°
2026-04-27 03:24 -34.70248 -55.99800 2879 ft 174 kts 82°
2026-04-27 03:24 -34.70047 -55.98361 2880 ft 174 kts 82°
2026-04-27 03:24 -34.69849 -55.96908 2878 ft 174 kts 82°
2026-04-27 03:25 -34.69644 -55.95457 2876 ft 174 kts 81°
2026-04-27 03:25 -34.69433 -55.94000 2880 ft 174 kts 82°
2026-04-27 03:25 -34.69226 -55.92558 2887 ft 174 kts 81°
2026-04-27 03:25 -34.69018 -55.91112 2881 ft 174 kts 82°
2026-04-27 03:26 -34.68808 -55.89666 2883 ft 175 kts 82°
2026-04-27 03:26 -34.68595 -55.88194 2884 ft 176 kts 81°
2026-04-27 03:26 -34.68386 -55.86734 2880 ft 176 kts 82°
2026-04-27 03:26 -34.68173 -55.85265 2874 ft 177 kts 82°
2026-04-27 03:27 -34.67963 -55.83807 2865 ft 177 kts 80°
2026-04-27 03:27 -34.67748 -55.82325 2867 ft 177 kts 81°
2026-04-27 03:27 -34.67537 -55.80870 2866 ft 177 kts 81°
2026-04-27 03:27 -34.67321 -55.79380 2868 ft 177 kts 81°
2026-04-27 03:28 -34.67109 -55.77923 2862 ft 177 kts 81°
2026-04-27 03:28 -34.66892 -55.76442 2868 ft 177 kts 81°
2026-04-27 03:28 -34.66674 -55.74975 2867 ft 177 kts 81°
2026-04-27 03:28 -34.66462 -55.73502 2866 ft 176 kts 81°
2026-04-27 03:29 -34.66589 -55.72089 2857 ft 165 kts 124°
2026-04-27 03:29 -34.67303 -55.71151 2854 ft 139 kts 168°
2026-04-27 03:29 -34.68134 -55.71055 2854 ft 110 kts 212°
2026-04-27 03:29 -34.68716 -55.71572 2841 ft 98 kts 243°
2026-04-27 03:30 -34.68957 -55.72322 2865 ft 96 kts 251°
2026-04-27 03:30 -34.69175 -55.73103 2874 ft 97 kts 251°
2026-04-27 03:30 -34.69391 -55.73880 2872 ft 97 kts 252°
2026-04-27 03:30 -34.69604 -55.74658 2868 ft 97 kts 251°
2026-04-27 03:31 -34.69815 -55.75432 2869 ft 97 kts 251°
2026-04-27 03:31 -34.70029 -55.76212 2871 ft 96 kts 250°
2026-04-27 03:31 -34.70237 -55.76996 2870 ft 97 kts 252°
2026-04-27 03:31 -34.70447 -55.77774 2866 ft 97 kts 251°
2026-04-27 03:32 -34.70662 -55.78551 2870 ft 97 kts 251°
2026-04-27 03:32 -34.70873 -55.79335 2862 ft 97 kts 251°
2026-04-27 03:32 -34.71088 -55.80112 2863 ft 97 kts 251°
2026-04-27 03:32 -34.71297 -55.80887 2866 ft 98 kts 251°
2026-04-27 03:33 -34.71552 -55.81656 2865 ft 98 kts 247°
2026-04-27 03:33 -34.71820 -55.82413 2870 ft 98 kts 248°
2026-04-27 03:33 -34.72095 -55.83176 2868 ft 98 kts 248°
2026-04-27 03:33 -34.72370 -55.83929 2863 ft 98 kts 247°
2026-04-27 03:34 -34.72685 -55.84676 2860 ft 100 kts 237°
2026-04-27 03:34 -34.73142 -55.85318 2866 ft 100 kts 235°
2026-04-27 03:34 -34.73614 -55.85959 2809 ft 103 kts 236°
2026-04-27 03:34 -34.74070 -55.86646 2703 ft 104 kts 239°
2026-04-27 03:35 -34.74473 -55.87366 2669 ft 101 kts 241°
2026-04-27 03:35 -34.74868 -55.88083 2552 ft 104 kts 240°
2026-04-27 03:35 -34.75294 -55.88828 2385 ft 108 kts 238°
2026-04-27 03:35 -34.75726 -55.89602 2182 ft 110 kts 240°
2026-04-27 03:36 -34.76136 -55.90383 2037 ft 108 kts 240°
2026-04-27 03:36 -34.76575 -55.91125 1803 ft 110 kts 239°
2026-04-27 03:36 -34.77044 -55.91870 1564 ft 109 kts 238°
2026-04-27 03:36 -34.77464 -55.92552 1563 ft 92 kts 239°
2026-04-27 03:37 -34.77837 -55.93138 1571 ft 84 kts 239°
2026-04-27 03:37 -34.78162 -55.93685 1630 ft 77 kts 242°
2026-04-27 03:37 -34.78475 -55.94193 1635 ft 74 kts 239°
2026-04-27 03:37 -34.78777 -55.94701 1572 ft 73 kts 240°
2026-04-27 03:38 -34.79061 -55.95163 1361 ft 63 kts 238°
2026-04-27 03:38 -34.79323 -55.95562 1195 ft 58 kts 240°
2026-04-27 03:38 -34.79563 -55.95953 1082 ft 56 kts 241°
2026-04-27 03:38 -34.79801 -55.96339 1032 ft 56 kts 237°
2026-04-27 03:39 -34.80042 -55.96714 998 ft 57 kts 242°
2026-04-27 03:39 -34.80268 -55.97121 972 ft 58 kts 243°
2026-04-27 03:39 -34.80505 -55.97532 902 ft 59 kts 239°
2026-04-27 03:39 -34.80745 -55.97945 827 ft 60 kts 241°
2026-04-27 03:40 -34.81005 -55.98368 735 ft 62 kts 239°
2026-04-27 03:40 -34.81270 -55.98785 645 ft 60 kts 241°
2026-04-27 03:40 -34.81517 -55.99208 544 ft 62 kts 242°
2026-04-27 03:40 -34.81764 -55.99638 508 ft 60 kts 243°
2026-04-27 03:41 -34.82014 -56.00064 412 ft 61 kts 239°
2026-04-27 03:41 -34.82268 -56.00472 326 ft 60 kts 240°
2026-04-27 03:41 -34.82525 -56.00906 227 ft 67 kts 242°
2026-04-27 03:41 -34.82787 -56.01346 113 ft 56 kts 240°
2026-04-27 03:42 -34.82974 -56.01664 85 ft 37 kts 233°
2026-04-27 03:42 -34.83111 -56.01888 76 ft 29 kts 232°
2026-04-27 03:42 -34.83235 -56.01957 76 ft 19 kts 143°
2026-04-27 03:42 -34.83313 -56.01885 77 ft 8 kts 142°
2026-04-27 03:43 -34.83373 -56.01831 78 ft 13 kts 147°
2026-04-27 03:43 -34.83466 -56.01758 76 ft 17 kts 176°
2026-04-27 03:43 -34.83547 -56.01849 73 ft 15 kts 231°
2026-04-27 03:43 -34.83612 -56.01956 70 ft 15 kts 234°
2026-04-27 03:44 -34.83679 -56.01987 68 ft 11 kts 140°
2026-04-27 03:44 -34.83717 -56.01933 67 ft 0 kts 120°
2026-04-27 03:45 -34.83718 -56.01933 67 ft 0 kts 121°
2026-04-27 03:45 -34.83718 -56.01932 67 ft 0 kts 122°
2026-04-27 03:46 -34.83718 -56.01931 67 ft 0 kts 123°